sat.trackr.live / text

‹ back to catalog

ONEWEB-0366

NORAD 49292 · 2021-090P

PAYLOAD ACTIVE UNKNOWN

§ Identity

Operator
Country
UK
Launch date
2021-10-14
Launch site
VOSTO
Launch vehicle
Mass (kg)
RCS (m²)

Purposes: comms

External: N2YO · Heavens-Above · Gunter

§ Orbital elements

Epoch: 2026-05-25T03:27:07.147008Z

Period
109.55 min
Inclination
87.8937°
Eccentricity
0.0001860
Mean motion
13.14501306 rev/d
Perigee alt
1,204.4 km
Apogee alt
1,207.2 km
Semi-major
7,583.9 km
B*
-3.7547e-4
RAAN
294.3026°
Arg perigee
98.9943°
Mean anomaly
261.1397°
Rev number
22,453

§ Raw data

ONEWEB-03661 49292U 21090P   26145.14383272 -.00000126  00000+0 -37547-3 0  99952 49292  87.8937 294.3026 0001860  98.9943 261.1397 13.14501306224532

JSON: /api/v1/satellites/49292 · /tle

For live sub-satellite position, see the globe view (requires WebGL).

§ Visibility from observer

Set your observer location to see the next 7 days of passes ≥ 10°. The values pass through the URL so the page stays shareable.

No JS? Fill the form by hand. The geolocation button needs JavaScript.